Rotterdam, Netherlands

6:53 AM CEST on July 30, 2016 (GMT +0200)
Rotterdam

Weather History for EHRD - March, 2014

Change the Weather History Date:

Monday, March 10, 2014

  Actual Average Record
Temperature  
Mean Temperature 49 °F -  
Max Temperature 63 °F 50 °F 63 °F (2014)
Min Temperature 35 °F 37 °F 28 °F (2016)
Degree Days  
Heating Degree Days 16    
Moisture  
Dew Point 42 °F    
Average Humidity 79    
Maximum Humidity 100    
Minimum Humidity 43    
Precipitation  
Precipitation 0.00 in - - ()
Sea Level Pressure  
Sea Level Pressure 30.30 in    
Wind  
Wind Speed 5 mph ()    
Max Wind Speed 15 mph    
Max Gust Speed -    
Visibility 4.8 miles    
Events      
Averages and records for this station are not official NWS values.
T = Trace of Precipitation, MM = Missing Value Source: Averaged Metar Reports

Daily Weather History Graph

Daily Weather History Graph

Search for Another Location

Airport or City:

Trip Planner

Search our weather history database for the weather conditions in past years. The results will help you decide how hot, cold, wet, or windy it might be!

Date:

Astronomy

Mar. 10, 2014 Rise Set
Actual Time 7:08 AM CET 6:37 PM CET
Civil Twilight 6:34 AM CET 7:11 PM CET
Nautical Twilight 5:55 AM CET 7:50 PM CET
Astronomical Twilight 5:15 AM CET 8:30 PM CET
Moon 12:37 PM CET (3/10) 3:39 AM CET (3/10)
Length of Visible Light 12h 36m
Length of Day
11h 29m
Waxing Gibbous, 68% of the Moon is Illuminated
Mar 10
Waxing Gibbous
Mar 16
Full
Mar 24
Last Quarter
Mar 30
New
Apr 7
First Quarter

Hourly Weather History & Observations

Time (CET) Temp. Windchill Dew Point Humidity Pressure Visibility Wind Dir Wind Speed Gust Speed Precip Events Conditions
12:00 AM 47 °F - 38 °F 61% 30.28 in 8 mi West 2.2 mph - -  
12:25 AM 42.8 °F 40.1 °F 37.4 °F 81% 30.27 in 6.2 mi WSW 4.6 mph - N/A   Unknown
12:55 AM 44.6 °F - 39.2 °F 81% 30.27 in 6.2 mi Variable 1.2 mph - N/A   Unknown
1:00 AM 42 °F - 38 °F 79% 30.28 in 7 mi Calm Calm - -   Partly Cloudy
1:25 AM 41.0 °F - 37.4 °F 87% 30.27 in 6.2 mi Variable 1.2 mph - N/A   Unknown
1:55 AM 39.2 °F - 35.6 °F 87% 30.27 in 6.2 mi Variable 1.2 mph - N/A   Unknown
2:00 AM 38 °F - 35 °F 85% 30.28 in 7 mi SSE 2.2 mph - -   Scattered Clouds
2:25 AM 39.2 °F 37.0 °F 35.6 °F 87% 30.27 in 6.2 mi SE 3.5 mph - N/A   Unknown
2:55 AM 39.2 °F - 37.4 °F 93% 30.27 in 6.2 mi SE 2.3 mph - N/A   Unknown
3:00 AM 40 °F - 38 °F 89% 30.27 in 6 mi South 2.2 mph - -  
3:25 AM 41.0 °F 39.0 °F 37.4 °F 87% 30.24 in 5.6 mi SSE 3.5 mph - N/A   Unknown
3:55 AM 41.0 °F - 37.4 °F 87% 30.27 in 5.6 mi Variable 1.2 mph - N/A   Unknown
4:00 AM 39 °F - 36 °F 84% 30.27 in 6 mi SE 4.5 mph - -   Mist
4:25 AM 35.6 °F 32.8 °F 33.8 °F 93% 30.24 in 5.6 mi Variable 3.5 mph - N/A   Unknown
4:55 AM 37.4 °F 34.9 °F 35.6 °F 93% 30.24 in 5.6 mi South 3.5 mph - N/A   Unknown
5:00 AM 37 °F - 35 °F 90% 30.27 in 6 mi SSW 2.2 mph - -   Mist
5:25 AM 37.4 °F - 35.6 °F 93% 30.24 in 5.0 mi SSE 2.3 mph - N/A   Unknown
5:55 AM 39.2 °F 37.0 °F 35.6 °F 87% 30.24 in 6.2 mi SSW 3.5 mph - N/A   Unknown
6:00 AM 39 °F - 35 °F 81% 30.27 in 6 mi SSW 2.2 mph - -  
6:25 AM 39.2 °F - 35.6 °F 87% 30.24 in 6.2 mi Variable 2.3 mph - N/A   Unknown
6:55 AM 39.2 °F 35.9 °F 33.8 °F 81% 30.27 in 6.2 mi SSE 4.6 mph - N/A   Unknown
7:00 AM 41 °F - 36 °F 75% 30.27 in 6 mi SSE 4.5 mph - -   Partly Cloudy
7:25 AM 42.8 °F 40.1 °F 37.4 °F 81% 30.27 in 6.2 mi South 4.6 mph - N/A   Unknown
7:55 AM 41.0 °F - 35.6 °F 81% 30.27 in 6.2 mi Variable 2.3 mph - N/A   Unknown
8:00 AM 42 °F - 36 °F 73% 30.28 in 6 mi West 2.2 mph - -   Mist
8:25 AM 44.6 °F - 37.4 °F 76% 30.27 in 5.6 mi South 2.3 mph - N/A   Unknown
8:55 AM 50.0 °F - 42.8 °F 76% 30.27 in 5.0 mi Variable 2.3 mph - N/A   Unknown
9:00 AM 51 °F - 43 °F 67% 30.29 in 6 mi SSW 2.2 mph - -   Light Haze
9:25 AM 53.6 °F - 44.6 °F 72% 30.27 in 5.6 mi Variable 2.3 mph - N/A   Unknown
9:55 AM 53.6 °F - 42.8 °F 67% 30.27 in 5.6 mi Variable 1.2 mph - N/A   Unknown
10:00 AM 56 °F - 45 °F 56% 30.29 in 6 mi Calm Calm - -   Light Haze
10:25 AM 59.0 °F - 46.4 °F 63% 30.27 in 5.0 mi Variable 1.2 mph - N/A   Unknown
10:55 AM 59.0 °F - 46.4 °F 63% 30.27 in 5.6 mi WNW 6.9 mph - N/A   Unknown
11:00 AM 59 °F - 47 °F 54% 30.29 in 6 mi NW 8.9 mph - -   Light Haze
11:25 AM 60.8 °F - 44.6 °F 55% 30.27 in 6.2 mi NNW 6.9 mph - N/A   Unknown
11:55 AM 60.8 °F - 44.6 °F 55% 30.27 in 6.2 mi NNW 9.2 mph - N/A   Unknown
12:00 PM 59 °F - 45 °F 50% 30.29 in 7 mi NNW 11.2 mph - -  
12:25 PM 59.0 °F - 44.6 °F 59% 30.27 in 6.2 mi North 10.4 mph - N/A   Unknown
12:55 PM 59.0 °F - 44.6 °F 59% 30.27 in 6.2 mi North 9.2 mph - N/A   Unknown
1:00 PM 59 °F - 47 °F 56% 30.30 in 6 mi North 8.9 mph - -   Light Haze
1:25 PM 59.0 °F - 46.4 °F 63% 30.27 in 5.6 mi North 6.9 mph - N/A   Unknown
1:55 PM 60.8 °F - 44.6 °F 55% 30.27 in 6.2 mi North 10.4 mph - N/A   Unknown
2:00 PM 62 °F - 45 °F 43% 30.29 in 7 mi North 11.2 mph - -  
2:25 PM 62.6 °F - 46.4 °F 55% 30.27 in 6.2 mi North 9.2 mph - N/A   Unknown
2:55 PM 62.6 °F - 42.8 °F 48% 30.27 in 6.2 mi North 6.9 mph - N/A   Unknown
3:00 PM 63 °F - 47 °F 45% 30.28 in 10 mi North 6.7 mph - -  
3:25 PM 60.8 °F - 48.2 °F 63% 30.27 in 6.2 mi NNW 10.4 mph - N/A   Unknown
3:55 PM 55.4 °F - 46.4 °F 72% 30.27 in 5.6 mi NNW 13.8 mph - N/A   Unknown
4:00 PM 54 °F - 47 °F 70% 30.30 in 4 mi NNW 13.4 mph - -   Light Haze
4:25 PM 51.8 °F - 46.4 °F 82% 30.30 in - NNW 13.8 mph - N/A   Haze
4:55 PM 50.0 °F - 46.4 °F 87% 30.30 in 2.5 mi North 8.1 mph - N/A   Partly Cloudy
5:00 PM 50 °F - 46 °F 83% 30.31 in 2 mi North 8.9 mph - -   Mist
5:25 PM 50.0 °F - 46.4 °F 87% 30.30 in - North 5.8 mph - N/A   Mist
5:55 PM 48.2 °F - 46.4 °F 93% 30.30 in - NNW 6.9 mph - N/A   Mostly Cloudy
6:00 PM 48 °F - 46 °F 90% 30.32 in 2 mi NNW 6.7 mph - -   Mist
6:25 PM 46.4 °F 42.9 °F 46.4 °F 100% 30.33 in 1.6 mi North 6.9 mph - N/A   Mostly Cloudy
6:55 PM 48.2 °F - 46.4 °F 93% 30.33 in 1.1 mi North 11.5 mph - N/A   Overcast
7:00 PM 48 °F - 47 °F 94% 30.35 in 1 mi North 11.2 mph - -   Mist
7:25 PM 48.2 °F - 46.4 °F 93% 30.33 in 1.8 mi North 11.5 mph - N/A   Overcast
7:55 PM 48.2 °F - 46.4 °F 93% 30.36 in 1.6 mi North 11.5 mph - N/A   Overcast
8:00 PM 48 °F - 46 °F 90% 30.38 in 2 mi NNE 13.4 mph - -   Mist
8:25 PM 48.2 °F - 46.4 °F 93% 30.36 in 1.6 mi North 12.7 mph - N/A   Overcast
8:55 PM 46.4 °F 41.1 °F 46.4 °F 100% 30.36 in 1.7 mi NNE 11.5 mph - N/A   Overcast
9:00 PM 47 °F - 46 °F 94% 30.39 in 1 mi NNE 11.2 mph - -   Mist
9:25 PM 46.4 °F 40.4 °F 46.4 °F 100% 30.39 in 1.6 mi NNE 13.8 mph - N/A   Overcast
9:55 PM 46.4 °F 40.7 °F 46.4 °F 100% 30.39 in 1.6 mi NE 12.7 mph - N/A   Overcast
10:00 PM 47 °F - 46 °F 93% 30.40 in 2 mi NNE 13.4 mph - -   Mist
10:25 PM 46.4 °F 40.1 °F 44.6 °F 93% 30.39 in 1.6 mi NE 15.0 mph - N/A   Overcast
10:55 PM 46.4 °F 41.1 °F 46.4 °F 100% 30.39 in 1.6 mi NNE 11.5 mph - N/A   Overcast
11:00 PM 46 °F - 45 °F 96% 30.41 in 1 mi NNE 11.2 mph - -   Mist
11:25 PM 46.4 °F 40.4 °F 44.6 °F 93% 30.39 in 1.7 mi NNE 13.8 mph - N/A   Overcast
11:55 PM 46.4 °F 40.7 °F 44.6 °F 93% 30.39 in 1.7 mi NNE 12.7 mph - N/A   Overcast